Rouen Airport

LFOP · Seine-Maritime, Normandy, Francja

Historia METAR LFOP · Rouen Airport

Poniżej widzisz METAR-y z ostatnich kilku dni. Wybierz rok, aby przeglądać starsze METAR-y, począwszy od roku 2007.

3 grudnia 2022

Czas Kod Pogoda Temp. Widoczność Sufit Wiatr METAR/SPECI
05:30
M
2 °C 6 km 1.200 ft 040° 040° 12 kt METAR LFOP 030430Z AUTO 04012KT 6000 BKN012 OVC020 02/M01 Q1018
05:00
M
2 °C 7 km 1.200 ft 040° 040° 12 kt METAR LFOP 030400Z AUTO 04012KT 7000 -DZ OVC012 02/M00 Q1018
04:30
M
2 °C 7 km 1.100 ft 040° 040° 14 kt METAR LFOP 030330Z AUTO 04014KT 7000 OVC011 02/M01 Q1018
04:00
M
2 °C 7 km 1.100 ft 040° 040° 13 kt METAR LFOP 030300Z AUTO 04013KT 7000 OVC011 02/M00 Q1018
03:30
M
2 °C 6 km 1.100 ft 040° 040° 12 kt METAR LFOP 030230Z AUTO 04012KT 6000 OVC011 02/M01 Q1018
03:00
M
2 °C 7 km 1.200 ft 040° 040° 12 kt METAR LFOP 030200Z AUTO 04012KT 7000 OVC012 02/M00 Q1018
02:30
M
2 °C 7 km 1.200 ft 050° 050° 15 kt METAR LFOP 030130Z AUTO 05015KT 7000 OVC012 02/M00 Q1018
02:00
M
2 °C 9 km 1.500 ft 050° 050° 15 kt METAR LFOP 030100Z AUTO 05015KT 9000 FEW007 OVC015 02/M01 Q1018
01:30
I
2 °C 5 km 700 ft 040° 040° 15 kt METAR LFOP 030030Z AUTO 04015KT 5000 BR OVC007 02/01 Q1018
01:00
I
2 °C 6 km 700 ft 050° 050° 14 kt METAR LFOP 030000Z AUTO 05014KT 6000 OVC007 02/01 Q1019
00:30
I
2 °C 5 km 600 ft 040° 040° 13 kt METAR LFOP 022330Z AUTO 04013KT 5000 BR OVC006 02/01 Q1019
00:00
I
3 °C 5 km 700 ft 040° 040° 13 kt METAR LFOP 022300Z AUTO 04013KT 5000 BR OVC007 03/01 Q1019

2 grudnia 2022

Czas Kod Pogoda Temp. Widoczność Sufit Wiatr METAR/SPECI
23:30
I
3 °C 6 km 700 ft 040° 040° 14 kt METAR LFOP 022230Z AUTO 04014KT 6000 OVC007 03/01 Q1019
23:00
I
3 °C 5 km 700 ft 040° 040° 11 kt METAR LFOP 022200Z AUTO 04011KT 5000 BR OVC007 03/01 Q1019
22:30
I
3 °C 6 km 700 ft 040° 040° 12 kt METAR LFOP 022130Z AUTO 04012KT 360V060 6000 OVC007 03/01 Q1019
22:00
I
2 °C 6 km 800 ft 040° 040° 10 kt METAR LFOP 022100Z AUTO 04010KT 6000 OVC008 02/01 Q1019 TEMPO 4000 DZ BR
21:30
I
2 °C 8 km 900 ft 040° 040° 11 kt METAR LFOP 022030Z AUTO 04011KT 8000 BKN009 OVC015 02/01 Q1019 TEMPO 4000 DZ BR
21:00
M
2 °C 9 km 1.100 ft 040° 040° 11 kt METAR LFOP 022000Z AUTO 04011KT 9000 OVC011 02/00 Q1019 TEMPO 4000 DZ BR OVC008
20:30
M
2 °C 8 km 1.100 ft 040° 040° 12 kt METAR LFOP 021930Z AUTO 04012KT 8000 OVC011 02/00 Q1019 TEMPO 4000 DZ BR OVC008
20:00
I
2 °C 6 km 900 ft 040° 040° 11 kt METAR LFOP 021900Z AUTO 04011KT 6000 OVC009 02/01 Q1019 TEMPO 4000 DZ BR
19:30
I
3 °C 6 km 900 ft 040° 040° 14 kt METAR LFOP 021830Z AUTO 04014KT 6000 OVC009 03/01 Q1019 TEMPO SCT013 OVC022
19:00
M
3 °C 7 km 1.100 ft 040° 040° 12 kt METAR LFOP 021800Z AUTO 04012KT 7000 OVC011 03/01 Q1019 TEMPO SCT013 OVC022
18:30
M
3 °C 8 km 1.200 ft 040° 040° 13 kt METAR LFOP 021730Z AUTO 04013KT 8000 OVC012 03/01 Q1019 BECMG BKN007
18:00
M
3 °C 8 km 1.200 ft 030° 030° 11 kt METAR LFOP 021700Z AUTO 03011KT 8000 OVC012 03/01 Q1019 BECMG BKN007
17:30
M
4 °C 9 km 1.900 ft 040° 040° 12 kt METAR LFOP 021630Z AUTO 04012KT 9000 BKN019 OVC027 04/00 Q1019 BECMG BKN007
17:00
V
4 °C 10 km+ 3.300 ft 040° 040° 13 kt METAR LFOP 021600Z AUTO 04013KT 9999 SCT025 BKN033 OVC040 04/M00 Q1019 BECMG BKN007
16:30
V
4 °C 10 km+ 4.200 ft 040° 040° 11 kt METAR LFOP 021530Z AUTO 04011KT 9999 FEW024 SCT033 BKN042 04/00 Q1019 BECMG BKN007
16:00
M
5 °C 10 km+ 2.600 ft 020° 020° 10 kt METAR LFOP 021500Z AUTO 02010KT 9999 OVC026 05/00 Q1019 BECMG BKN007
15:30
M
4 °C 9 km 1.800 ft 020° 020° 9 kt METAR LFOP 021430Z AUTO 02009KT 9000 BKN018 OVC027 04/01 Q1020 BECMG BKN007
15:00
M
5 °C 8 km 1.700 ft 030° 030° 12 kt METAR LFOP 021400Z AUTO 03012KT 8000 BKN017 OVC022 05/01 Q1020 NOSIG
14:30
M
6 °C 8 km 1.700 ft 360° 360° 10 kt METAR LFOP 021330Z AUTO 36010KT 8000 BKN017 BKN022 06/01 Q1020 NOSIG
14:00
M
5 °C 7 km - 020° 020° 8 kt METAR LFOP 021300Z AUTO 02008KT 7000 NSC 05/02 Q1020 NOSIG
13:30
V
5 °C 8 km - 010° 010° 9 kt METAR LFOP 021230Z AUTO 01009KT 8000 NSC 05/02 Q1021 NOSIG
13:00
V
5 °C 9 km - 020° 020° 6 kt METAR LFOP 021200Z AUTO 02006KT 9000 NSC 05/02 Q1021 BECMG BKN009
12:30
V
5 °C 8 km - 020° 020° 7 kt METAR LFOP 021130Z AUTO 02007KT 8000 NSC 05/01 Q1021 BECMG BKN009
12:00
V
4 °C 10 km+ 4.600 ft 020° 020° 7 kt METAR LFOP 021100Z AUTO 02007KT 9999 BKN046 OVC170 04/01 Q1022 BECMG BKN009
11:30
V
4 °C 9 km 4.800 ft 010° 010° 5 kt METAR LFOP 021030Z AUTO 01005KT 9000 FEW040 BKN048 BKN098 04/01 Q1022 BECMG BKN009
11:00
V
3 °C 8 km 3.900 ft 010° 010° 5 kt METAR LFOP 021000Z AUTO 01005KT 8000 OVC039 03/01 Q1022 BECMG BKN009
10:30
V
3 °C 8 km 4.300 ft 010° 010° 5 kt METAR LFOP 020930Z AUTO 01005KT 8000 OVC043 03/01 Q1022 BECMG BKN009
10:00
M
3 °C 7 km 4.900 ft 020° 020° 4 kt METAR LFOP 020900Z AUTO 02004KT 7000 OVC049 03/01 Q1022 BECMG BKN009
09:30
M
2 °C 6 km 4.800 ft 010° 010° 4 kt METAR LFOP 020830Z AUTO 01004KT 6000 OVC048 02/01 Q1022 BECMG BKN009
09:00
M
2 °C 5 km 4.800 ft 360° 360° 5 kt METAR LFOP 020800Z AUTO 36005KT 5000 BR OVC048 02/00 Q1022 NOSIG
08:30
M
2 °C 5 km 4.800 ft 360° 360° 4 kt METAR LFOP 020730Z AUTO 36004KT 5000 BR BKN048 OVC170 02/00 Q1022 NOSIG
08:00
M
2 °C 6 km - 360° 360° 4 kt METAR LFOP 020700Z AUTO 36004KT 6000 NSC 02/00 Q1022 NOSIG
07:30
M
2 °C 6 km - 010° 010° 4 kt METAR LFOP 020630Z AUTO 01004KT 6000 NSC 02/00 Q1023 NOSIG
07:00
M
2 °C 6 km - 020° 020° 4 kt METAR LFOP 020600Z AUTO 02004KT 6000 NSC 02/00 Q1023 NOSIG
06:30
M
1 °C 5 km - 030° 030° 5 kt METAR LFOP 020530Z AUTO 03005KT 5000 BR NSC 01/00 Q1023
06:00
M
1 °C 5 km - 010° 010° 5 kt METAR LFOP 020500Z AUTO 01005KT 5000 BR NSC 01/M00 Q1023
05:30
M
2 °C 6 km - 360° 360° 5 kt METAR LFOP 020430Z AUTO 36005KT 6000 NSC 02/M00 Q1023
05:00
M
1 °C 6 km - 020° 020° 4 kt METAR LFOP 020400Z AUTO 02004KT 6000 NSC 01/M01 Q1023
04:30
M
1 °C 6 km - 020° 020° 5 kt METAR LFOP 020330Z AUTO 02005KT 6000 NSC 01/M00 Q1023
04:00
M
1 °C 6 km - 020° 020° 5 kt METAR LFOP 020300Z AUTO 02005KT 6000 NSC 01/M00 Q1024
03:30
M
1 °C 7 km - 030° 030° 6 kt METAR LFOP 020230Z AUTO 03006KT 7000 FEW028 01/M01 Q1024
03:00
M
2 °C 7 km - 010° 010° 6 kt METAR LFOP 020200Z AUTO 01006KT 7000 FEW030 02/M00 Q1024
02:30
M
2 °C 7 km - 020° 020° 6 kt METAR LFOP 020130Z AUTO 02006KT 7000 NSC 02/00 Q1024
02:00
M
3 °C 7 km - 360° 360° 6 kt METAR LFOP 020100Z AUTO 36006KT 7000 SCT028 03/01 Q1024
01:30
M
4 °C 7 km 2.700 ft 360° 360° 7 kt METAR LFOP 020030Z AUTO 36007KT 7000 OVC027 04/01 Q1025
01:00
M
4 °C 7 km 2.500 ft 030° 030° 5 kt METAR LFOP 020000Z AUTO 03005KT 7000 OVC025 04/02 Q1025
00:30
M
4 °C 8 km 2.400 ft 020° 020° 5 kt METAR LFOP 012330Z AUTO 02005KT 8000 OVC024 04/02 Q1025
00:00
M
4 °C 9 km 2.100 ft 040° 040° 5 kt METAR LFOP 012300Z AUTO 04005KT 9000 OVC021 04/02 Q1025

1 grudnia 2022

Czas Kod Pogoda Temp. Widoczność Sufit Wiatr METAR/SPECI
23:30
M
4 °C 10 km+ 1.800 ft 040° 040° 7 kt METAR LFOP 012230Z AUTO 04007KT 9999 OVC018 04/02 Q1026
23:00
M
4 °C 10 km+ 1.700 ft 040° 040° 8 kt METAR LFOP 012200Z AUTO 04008KT 9999 OVC017 04/02 Q1025
22:30
M
4 °C 10 km+ 1.800 ft 050° 050° 9 kt METAR LFOP 012130Z AUTO 05009KT 9999 OVC018 04/02 Q1025
22:00
M
4 °C 8 km 1.800 ft 040° 040° 7 kt METAR LFOP 012100Z AUTO 04007KT 8000 OVC018 04/02 Q1026 TEMPO BKN010 BKN020
21:30
M
4 °C 7 km 2.000 ft 030° 030° 8 kt METAR LFOP 012030Z AUTO 03008KT 7000 OVC020 04/02 Q1026 TEMPO BKN010 BKN020
21:00
M
4 °C 8 km 2.100 ft 030° 030° 6 kt METAR LFOP 012000Z AUTO 03006KT 8000 OVC021 04/02 Q1026 TEMPO BKN010 BKN020
20:30
M
4 °C 8 km 2.200 ft 010° 010° 6 kt METAR LFOP 011930Z AUTO 01006KT 8000 OVC022 04/02 Q1026 TEMPO BKN010 BKN020
20:00
M
4 °C 10 km+ 2.000 ft 010° 010° 5 kt METAR LFOP 011900Z AUTO 01005KT 9999 OVC020 04/02 Q1026 TEMPO BKN010 BKN020
19:30
M
4 °C 10 km+ 1.900 ft 030° 030° 4 kt METAR LFOP 011830Z AUTO 03004KT 9999 OVC019 04/02 Q1026 TEMPO BKN010 BKN020
19:00
M
4 °C 10 km+ 1.900 ft 070° 070° 4 kt METAR LFOP 011800Z AUTO 07004KT 9999 OVC019 04/02 Q1026 TEMPO BKN010 BKN020
18:30
M
5 °C 10 km+ 1.900 ft 080° 080° 6 kt METAR LFOP 011730Z AUTO 08006KT 9999 OVC019 05/02 Q1026 BECMG BKN012
18:00
M
5 °C 10 km+ 1.600 ft 060° 060° 11 kt METAR LFOP 011700Z AUTO 06011KT 9999 OVC016 05/02 Q1026 BECMG BKN012
17:30
M
4 °C 10 km+ 1.400 ft 030° 030° 7 kt METAR LFOP 011630Z AUTO 03007KT 9999 OVC014 04/02 Q1026 NOSIG
17:00
M
4 °C 10 km+ 1.400 ft 050° 050° 5 kt METAR LFOP 011600Z AUTO 05005KT 9999 OVC014 04/02 Q1026 NOSIG
16:30
M
4 °C 10 km+ 1.100 ft 030° 030° 5 kt METAR LFOP 011530Z AUTO 03005KT 9999 OVC011 04/02 Q1026 NOSIG
16:00
M
4 °C 9 km 1.000 ft 040° 040° 9 kt METAR LFOP 011500Z AUTO 04009KT 9000 OVC010 04/02 Q1026 NOSIG
15:30
M
4 °C 9 km 1.200 ft 040° 040° 9 kt METAR LFOP 011430Z AUTO 04009KT 010V070 9000 OVC012 04/02 Q1026 NOSIG
15:00
M
5 °C 10 km+ 1.500 ft 060° 060° 9 kt METAR LFOP 011400Z AUTO 06009KT 9999 OVC015 05/02 Q1025 BECMG BKN012
14:30
M
5 °C 10 km+ 1.500 ft 050° 050° 7 kt METAR LFOP 011330Z AUTO 05007KT 9999 BKN015 05/03 Q1026 BECMG BKN012
14:00
V
6 °C 10 km+ - 030° 030° 10 kt METAR LFOP 011300Z AUTO 03010KT 9999 SCT013 06/03 Q1026 BECMG BKN012
13:30
M
5 °C 9 km 1.000 ft 360° 360° 7 kt METAR LFOP 011230Z AUTO 36007KT 9000 OVC010 05/03 Q1026 NOSIG
13:00
I
4 °C 10 km+ 900 ft 020° 020° 9 kt METAR LFOP 011200Z AUTO 02009KT 9999 OVC009 04/02 Q1027 BECMG BKN012
12:30
I
4 °C 8 km 700 ft 010° 010° 6 kt METAR LFOP 011130Z AUTO 01006KT 8000 OVC007 04/02 Q1027 BECMG BKN012
12:00
I
4 °C 7 km 600 ft 040° 040° 5 kt METAR LFOP 011100Z AUTO 04005KT 020V110 7000 OVC006 04/03 Q1027 NOSIG
11:30
I
4 °C 6 km 600 ft 050° 050° 5 kt METAR LFOP 011030Z AUTO 05005KT 010V080 6000 OVC006 04/02 Q//// NOSIG
11:00
I
3 °C 6 km 500 ft 060° 060° 6 kt METAR LFOP 011000Z AUTO 06006KT 030V090 6000 OVC005 03/02 Q//// NOSIG
10:30
I
4 °C 5 km 600 ft 050° 050° 8 kt METAR LFOP 010930Z AUTO 05008KT 5000 BR OVC006 04/03 Q//// NOSIG
10:00
I
4 °C 4,4 km 600 ft 040° 040° 8 kt METAR LFOP 010900Z AUTO 04008KT 4400 BR OVC006 04/03 Q//// TEMPO VV/// BECMG 8000 NSW
09:30
I
3 °C 4,1 km 600 ft 040° 040° 9 kt METAR LFOP 010830Z AUTO 04009KT 4100 BR OVC006 03/03 Q//// TEMPO VV/// BECMG 8000 NSW
09:00
I
3 °C 4,4 km 600 ft 040° 040° 8 kt METAR LFOP 010800Z AUTO 04008KT 4400 BR OVC006 03/03 Q//// TEMPO 0300 FG VV///
08:30
I
2 °C 3,1 km - 020° 020° 5 kt METAR LFOP 010730Z AUTO 02005KT 3100 BR SCT007 02/02 Q//// TEMPO 0300 FG VV///
08:00
I
3 °C 4,3 km - 360° 360° 4 kt METAR LFOP 010700Z AUTO 36004KT 4300 BR SCT005 03/02 Q//// TEMPO 0300 FG VV///
07:30
I
3 °C 5 km 500 ft 020° 020° 6 kt METAR LFOP 010630Z AUTO 02006KT 5000 BR OVC005 03/03 Q//// TEMPO 0300 FG VV///
07:00
L
3 °C 5 km 400 ft 030° 030° 7 kt METAR LFOP 010600Z AUTO 03007KT 5000 BR OVC004 03/03 Q////
06:30
L
3 °C 3,5 km 400 ft 350° 350° 3 kt METAR LFOP 010530Z AUTO 35003KT 320V030 3500 BR OVC004 03/03 Q////
06:00
L
3 °C 900 m - Var Var 2 kt METAR LFOP 010500Z AUTO VRB02KT 0900 R22/1300U FG VV/// 03/03 Q////
05:30
L
2 °C 450 m - 050° 050° 3 kt METAR LFOP 010430Z AUTO 05003KT 0500 0450 R22/0600N FG VV/// 02/02 Q////
05:00
L
2 °C 400 m - 020° 020° 6 kt METAR LFOP 010400Z AUTO 02006KT 0400 R22/0500N FG VV/// 02/02 Q////
04:30
L
2 °C 500 m - 020° 020° 7 kt METAR LFOP 010330Z AUTO 02007KT 0550 0500 R22/0650D FG VV/// 02/01 Q////
04:00
L
2 °C 1,4 km - 020° 020° 7 kt METAR LFOP 010300Z AUTO 02007KT 2700 1400 R22/3400D BR VV/// 02/01 Q1026
03:30
L
2 °C 1,1 km - 020° 020° 7 kt METAR LFOP 010230Z AUTO 02007KT 1100 R22/1700U BCFG VV/// 02/02 Q1026
03:00
L
2 °C 600 m - 350° 350° 4 kt METAR LFOP 010200Z AUTO 35004KT 0700 0600 R22/1000U FG NSC 02/01 Q1026
02:30
I
3 °C 3,6 km - 350° 350° 5 kt METAR LFOP 010130Z AUTO 35005KT 320V020 3600 BR NSC 03/02 Q1026
02:00
I
3 °C 4,8 km - 360° 360° 6 kt METAR LFOP 010100Z AUTO 36006KT 4800 BR FEW045 03/03 Q1026
01:30
M
4 °C 5 km 4.600 ft 020° 020° 5 kt METAR LFOP 010030Z AUTO 02005KT 5000 BR OVC046 04/03 Q1026
01:00
M
4 °C 5 km 4.600 ft 350° 350° 5 kt METAR LFOP 010000Z AUTO 35005KT 5000 BR OVC046 04/03 Q1026
00:30
M
3 °C 5 km 4.500 ft 030° 030° 4 kt METAR LFOP 302330Z AUTO 03004KT 5000 BR OVC045 03/03 Q1026
00:00
M
3 °C 5 km 4.700 ft 030° 030° 6 kt METAR LFOP 302300Z AUTO 03006KT 5000 BR OVC047 03/02 Q1026

30 listopada 2022

Czas Kod Pogoda Temp. Widoczność Sufit Wiatr METAR/SPECI
23:30
M
3 °C 5 km 4.600 ft 020° 020° 5 kt METAR LFOP 302230Z AUTO 02005KT 5000 BR OVC046 03/02 Q1026
23:00
M
3 °C 5 km 4.600 ft 020° 020° 5 kt METAR LFOP 302200Z AUTO 02005KT 5000 BR OVC046 03/02 Q1026
22:30
M
3 °C 5 km 4.600 ft 020° 020° 6 kt METAR LFOP 302130Z AUTO 02006KT 5000 BR BKN046 03/02 Q1026 BECMG OVC007
22:00
M
3 °C 5 km - 010° 010° 7 kt METAR LFOP 302100Z AUTO 01007KT 5000 BR FEW048 03/03 Q1026 BECMG OVC007
21:30
M
4 °C 6 km - 010° 010° 7 kt METAR LFOP 302030Z AUTO 01007KT 6000 NSC 04/03 Q1026 TEMPO 2000 BR OVC002
21:00
M
4 °C 6 km - 010° 010° 7 kt METAR LFOP 302000Z AUTO 01007KT 6000 NSC 04/03 Q1026 TEMPO 2000 BR OVC002
20:30
I
4 °C 8 km 800 ft 030° 030° 8 kt METAR LFOP 301930Z AUTO 03008KT 8000 BKN008 04/03 Q1025 TEMPO 2000 BR OVC002
20:00
I
5 °C 8 km 800 ft 050° 050° 10 kt METAR LFOP 301900Z AUTO 05010KT 8000 OVC008 05/03 Q1025 TEMPO 2000 BR OVC002
19:30
I
5 °C 7 km 800 ft 060° 060° 9 kt METAR LFOP 301830Z AUTO 06009KT 7000 OVC008 05/04 Q1025 TEMPO 2000 BR OVC002
19:00
I
5 °C 8 km 700 ft 050° 050° 7 kt METAR LFOP 301800Z AUTO 05007KT 8000 OVC007 05/04 Q1025 TEMPO 2000 BR OVC002
18:30
I
5 °C 8 km 700 ft 040° 040° 9 kt METAR LFOP 301730Z AUTO 04009KT 8000 OVC007 05/04 Q1025 NOSIG
18:00
I
5 °C 7 km 600 ft 050° 050° 8 kt METAR LFOP 301700Z AUTO 05008KT 7000 OVC006 05/04 Q1025 TEMPO BKN013
17:30
I
5 °C 8 km 600 ft 050° 050° 5 kt METAR LFOP 301630Z AUTO 05005KT 8000 OVC006 05/04 Q1025 TEMPO BKN013
17:00
I
4 °C 8 km 600 ft 040° 040° 6 kt METAR LFOP 301600Z AUTO 04006KT 8000 OVC006 04/03 Q1024 TEMPO BKN013
16:30
I
4 °C 9 km 600 ft 050° 050° 6 kt METAR LFOP 301530Z AUTO 05006KT 9000 OVC006 04/03 Q1024 TEMPO BKN013
16:00
I
5 °C 9 km 600 ft 050° 050° 6 kt METAR LFOP 301500Z AUTO 05006KT 020V080 9000 OVC006 05/03 Q1024 TEMPO BKN013
15:30
I
5 °C 10 km+ 600 ft 050° 050° 5 kt METAR LFOP 301430Z AUTO 05005KT 020V090 9999 OVC006 05/03 Q1024 TEMPO BKN013
15:00
I
4 °C 10 km+ 600 ft 040° 040° 5 kt METAR LFOP 301400Z AUTO 04005KT 360V070 9999 OVC006 04/03 Q1024 TEMPO BKN013
14:30
I
4 °C 10 km+ 500 ft 060° 060° 4 kt METAR LFOP 301330Z AUTO 06004KT 020V110 9999 OVC005 04/03 Q1024 TEMPO BKN013
14:00
I
4 °C 9 km 500 ft 090° 090° 4 kt METAR LFOP 301300Z AUTO 09004KT 060V130 9000 OVC005 04/03 Q1024 TEMPO BKN013
13:30
L
4 °C 8 km 400 ft 120° 120° 5 kt METAR LFOP 301230Z AUTO 12005KT 080V140 8000 OVC004 04/03 Q1024 TEMPO BKN013
13:00
L
4 °C 8 km 400 ft 090° 090° 5 kt METAR LFOP 301200Z AUTO 09005KT 8000 OVC004 04/03 Q1024 TEMPO BKN013
12:30
L
4 °C 9 km 300 ft 110° 110° 6 kt METAR LFOP 301130Z AUTO 11006KT 080V140 9000 OVC003 04/03 Q1024 TEMPO BKN013
12:00
L
4 °C 8 km 300 ft 120° 120° 6 kt METAR LFOP 301100Z AUTO 12006KT 8000 OVC003 04/04 Q1024 BECMG BKN013
11:30
L
4 °C 7 km 400 ft 070° 070° 5 kt METAR LFOP 301030Z AUTO 07005KT 7000 OVC004 04/04 Q1024 BECMG BKN013
11:00
L
5 °C 5 km 400 ft 070° 070° 7 kt METAR LFOP 301000Z AUTO 07007KT 5000 BR OVC004 05/04 Q1024 BECMG BKN020

My i strony trzecie śledzimy Twoje zachowanie internetowe na naszej stronie za pomocą plików cookie. Jeśli kontynuujesz, zakładamy, że zgadzasz się z naszymi polityka plików cookie.